Regional Weather Roundup
Issued by NWS

Home | Current Version | Previous Version | Text Only | Print | Product List | Glossary Off
Versions: 1 2 3 4 5 6 7 8 9 10 11 12 13 14 15 16 17 18 19 20 21 22 23 24 25 26 27 28 29 30 31 32 33 34 35 36 37 38 39 40 41 42 43 44 45 46 47 48 49 50

000
ASUS43 KFSD 101802
RWRSD

WEATHER ROUNDUP FOR SOUTH DAKOTA
NATIONAL WEATHER SERVICE SIOUX FALLS SD
100 PM CDT THU JUL 10 2014

NOTE: "FAIR" INDICATES FEW OR NO CLOUDS BELOW 12,000 FEET WITH NO
SIGNIFICANT WEATHER AND/OR OBSTRUCTIONS TO VISIBILITY.


SDZ001>005-009-010-012>017-101900-
NORTHWEST AND NORTH CENTRAL SOUTH DAKOTA

CITY           SKY/WX    TMP DP  RH WIND       PRES   REMARKS
BUFFALO          N/A     80  63  55 S7        29.81R
FAITH            N/A     73  62  68 S7        29.86F
MOBRIDGE       CLOUDY    69  64  84 S15       29.84F
$$

SDZ012>016-024>037-041>051-057-063-072>074-101900-
SOUTHWEST AND SOUTH CENTRAL SOUTH DAKOTA

CITY           SKY/WX    TMP DP  RH WIND       PRES   REMARKS
RAPID CTY ARPT MOSUNNY   80  59  48 NW9       29.89F
PIERRE         CLOUDY    78  65  63 S12       29.87S
CUSTER         SUNNY     79  55  43 CALM      30.02S
ELLSWORTH AFB  MOSUNNY   77  62  60 CALM      29.90S
PHILIP         PTSUNNY   81  65  58 SW3       29.85F
PINE RIDGE     MOSUNNY   83  63  50 VRB6      29.89S
WINNER         FAIR      79  65  62 S16G23    29.88F
$$

SDZ004>011-016>023-039-040-101900-
NORTHEAST SOUTH DAKOTA

CITY           SKY/WX    TMP DP  RH WIND       PRES   REMARKS
ABERDEEN       PTSUNNY   76  62  62 S15       29.87F
WATERTOWN      CLOUDY    78  62  57 S22G29    29.93F
SISSETON         N/A     78  65  63 SE12      29.90F
$$

SDZ017-020-022-023-036>040-048>070-101900-
SOUTHEAST SOUTH DAKOTA

CITY           SKY/WX    TMP DP  RH WIND       PRES   REMARKS
SIOUX FALLS    MOSUNNY   83  61  47 S15G28    29.95F
HURON          MOSUNNY   80  63  55 S13       29.89S
CHAMBERLAIN    MOSUNNY   76  65  68 S10       29.88F
MITCHELL       MOSUNNY   83  65  54 S15G25    29.91S
YANKTON        MOSUNNY   82  66  57 S17G26    29.94F
$$

ABBREVIATIONS USED IN REMARKS
   TC - TEMPERATURE IN CELSIUS
  WCI - WIND CHILL INDEX
   HX - HEAT INDEX
  VSB - VISIBILITY



USA.gov is the U.S. government's official web portal to all federal, state and local government web resources and services.